Weather reports worldwide

Advertisment
Reggio Calabria, Italy (16422): temperature & dewpoint: 29.03.2020 01:00:00 - 04.04.2020 01:00:00 (CEST)Reggio Calabria, Italy (16422): wind speed: 29.03.2020 01:00:00 - 04.04.2020 01:00:00 (CEST)Reggio Calabria, Italy (16422): wind direction: 29.03.2020 01:00:00 - 04.04.2020 01:00:00 (CEST)Reggio Calabria, Italy (16422): reduced air pressure: 29.03.2020 01:00:00 - 04.04.2020 01:00:00 (CEST)Reggio Calabria, Italy (16422): visibility: 29.03.2020 01:00:00 - 04.04.2020 01:00:00 (CEST)
Date & Time tt [°C] td [°C] ff [km/h] ff [kn] dd ppp [hPa] vv [km]
04.04.2020 01:00:00 - - - - - - -
04.04.2020 00:00:00 12,0 9,0 21 11 N - 10
03.04.2020 23:00:00 12,7 9,7 18 10 N 1009,4 10
03.04.2020 22:00:00 13,0 9,0 15 8 N - 10
03.04.2020 21:00:00 13,0 9,0 11 6 N - 10
03.04.2020 20:00:00 12,5 9,1 15 8 N 1008,6 10
03.04.2020 19:00:00 13,0 8,0 16 9 N - 10
03.04.2020 18:00:00 14,0 8,0 8 4 NNW - 10
03.04.2020 17:00:00 13,3 7,5 5 3 W 1008,4 10
03.04.2020 16:00:00 14,0 7,0 8 4 E - 10
03.04.2020 15:00:00 13,0 8,0 5 3 E - 10
03.04.2020 14:00:00 13,0 7,7 8 4 E 1009,4 10
03.04.2020 13:00:00 13,0 8,0 8 4 SSE - 10
03.04.2020 12:00:00 13,0 8,0 4 2 - - 10
03.04.2020 11:00:00 13,0 6,8 4 2 SSE 1010,7 10
03.04.2020 10:00:00 13,0 7,0 11 6 SSW - 10
03.04.2020 09:00:00 11,0 7,0 8 4 SE - 10
03.04.2020 08:00:00 10,3 6,5 5 3 ESE 1010,6 10
03.04.2020 07:00:00 8,0 6,0 9 5 ENE - 10
03.04.2020 06:00:00 8,0 6,0 9 5 ENE - 10
03.04.2020 05:00:00 9,3 5,9 5 3 SSE 1010,9 -
03.04.2020 04:00:00 - - - - - - -
03.04.2020 03:00:00 - - - - - - -
03.04.2020 02:00:00 10,9 6,6 4 2 ENE 1012,4 -
03.04.2020 01:00:00 - - - - - - -
03.04.2020 00:00:00 11,0 6,0 8 4 SSE - 10
02.04.2020 23:00:00 11,1 6,5 5 3 SE 1013,6 10
02.04.2020 22:00:00 12,0 6,0 11 6 SSW - 10
02.04.2020 21:00:00 12,0 6,0 11 6 SSW - 10
02.04.2020 20:00:00 11,5 6,0 13 7 SSW 1012,7 10
02.04.2020 19:00:00 12,0 6,0 15 8 SSW - 10
02.04.2020 18:00:00 12,0 5,0 13 7 S - 10
02.04.2020 17:00:00 12,3 5,9 16 9 SSW 1012,5 10
02.04.2020 16:00:00 13,0 6,0 11 6 SSW - 10
02.04.2020 15:00:00 12,0 6,0 15 8 SSW - 10
02.04.2020 14:00:00 12,2 5,2 11 6 S 1013,9 10
02.04.2020 13:00:00 12,0 5,0 16 9 S - 10
02.04.2020 12:00:00 12,0 5,0 18 10 S - 10
02.04.2020 11:00:00 12,4 5,2 15 8 S 1015,2 10
02.04.2020 10:00:00 12,0 5,0 11 6 S - 10
02.04.2020 09:00:00 11,0 5,0 9 5 SSE - 10
02.04.2020 08:00:00 9,8 4,6 5 3 E 1015,3 10
02.04.2020 07:00:00 8,0 4,0 5 3 E - 10
02.04.2020 06:00:00 8,0 4,0 5 3 ENE - 10
02.04.2020 05:00:00 8,1 3,3 8 4 ENE 1014,4 -
02.04.2020 04:00:00 - - - - - - -
02.04.2020 03:00:00 - - - - - - -
02.04.2020 02:00:00 6,5 1,3 9 5 ENE 1015,2 -
02.04.2020 01:00:00 - - - - - - -
02.04.2020 00:00:00 6,0 1,0 11 6 NE - 10
01.04.2020 23:00:00 7,3 1,3 8 4 NE 1016,0 10
01.04.2020 22:00:00 8,0 1,0 11 6 NNE - 10
01.04.2020 21:00:00 9,0 1,0 13 7 N - 10
01.04.2020 20:00:00 9,6 1,7 13 7 NE 1014,8 10
01.04.2020 19:00:00 11,0 1,0 24 13 N - 10
01.04.2020 18:00:00 11,0 3,0 22 12 N - 10
01.04.2020 17:00:00 11,4 5,1 16 9 NNE 1013,7 10
01.04.2020 16:00:00 11,0 5,0 21 11 N - 10
01.04.2020 15:00:00 12,0 7,0 18 10 N - 8
01.04.2020 14:00:00 12,9 9,4 22 12 N 1013,8 10
01.04.2020 13:00:00 14,0 13,0 28 15 N - 6
01.04.2020 12:00:00 13,0 11,0 18 10 N - 8
01.04.2020 11:00:00 13,6 11,8 9 5 NNE 1013,3 8
01.04.2020 10:00:00 14,0 10,0 8 4 NE - 10
01.04.2020 09:00:00 15,0 7,0 4 2 - - 10
01.04.2020 08:00:00 14,3 8,3 8 4 NNE 1012,7 10
01.04.2020 07:00:00 11,0 7,0 9 5 NE - 10
01.04.2020 06:00:00 11,0 7,0 9 5 NE - 10
01.04.2020 05:00:00 10,9 7,4 9 5 ENE 1013,1 -
01.04.2020 04:00:00 - - - - - - -
01.04.2020 03:00:00 - - - - - - -
01.04.2020 02:00:00 10,4 4,5 2 1 NE 1014,2 -
01.04.2020 01:00:00 - - - - - - -
01.04.2020 00:00:00 - - - - - - -
31.03.2020 23:00:00 11,5 6,7 4 2 E 1015,5 -
31.03.2020 22:00:00 - - - - - - -
31.03.2020 21:00:00 - - - - - - -
31.03.2020 20:00:00 14,3 10,3 13 7 N 1015,3 -
31.03.2020 19:00:00 - - - - - - -
31.03.2020 18:00:00 - - - - - - -
31.03.2020 17:00:00 16,3 9,6 21 11 N 1014,7 -
31.03.2020 16:00:00 - - - - - - -
31.03.2020 15:00:00 17,0 11,0 29 16 N - 10
31.03.2020 14:00:00 17,2 10,4 29 16 NNW 1014,7 10
31.03.2020 13:00:00 17,0 9,0 29 16 N - 10
31.03.2020 12:00:00 18,0 9,0 22 12 N - 10
31.03.2020 11:00:00 17,1 8,9 16 9 NNE 1015,6 10
31.03.2020 10:00:00 16,0 9,0 18 10 NE - 10
31.03.2020 09:00:00 14,0 9,0 16 9 NE - 10
31.03.2020 08:00:00 12,6 8,1 13 7 NE 1015,0 10
31.03.2020 07:00:00 12,0 8,0 11 6 NE - 10
31.03.2020 06:00:00 12,0 8,0 13 7 NE - 10
31.03.2020 05:00:00 12,1 8,6 15 8 NE 1014,1 -
31.03.2020 04:00:00 - - - - - - -
31.03.2020 03:00:00 - - - - - - -
31.03.2020 02:00:00 11,5 9,1 16 9 NE 1014,0 -
31.03.2020 01:00:00 - - - - - - -
31.03.2020 00:00:00 - - - - - - -
30.03.2020 23:00:00 11,4 8,5 15 8 NE 1013,7 -
30.03.2020 22:00:00 - - - - - - -
30.03.2020 21:00:00 - - - - - - -
30.03.2020 20:00:00 11,2 8,0 13 7 NE 1012,8 -
30.03.2020 19:00:00 - - - - - - -
30.03.2020 18:00:00 - - - - - - -
30.03.2020 17:00:00 11,3 9,9 4 2 NE 1012,1 -
30.03.2020 16:00:00 - - - - - - -
30.03.2020 15:00:00 12,0 10,0 9 5 N - 10
30.03.2020 14:00:00 12,2 9,8 15 8 N 1011,9 10
30.03.2020 13:00:00 14,0 9,0 24 13 N - 10
30.03.2020 12:00:00 14,0 9,0 22 12 N - 10
30.03.2020 11:00:00 13,2 9,1 22 12 N 1011,9 10
30.03.2020 10:00:00 13,0 9,0 16 9 N - 10
30.03.2020 09:00:00 13,0 9,0 13 7 N - 10
30.03.2020 08:00:00 12,3 8,5 5 3 NE 1011,4 10
30.03.2020 07:00:00 12,0 8,0 9 5 NE - 10
30.03.2020 06:00:00 11,0 7,0 4 2 - - 10
30.03.2020 05:00:00 10,8 7,2 8 4 N 1010,8 -
30.03.2020 04:00:00 - - - - - - -
30.03.2020 03:00:00 - - - - - - -
30.03.2020 02:00:00 10,6 7,6 9 5 NE 1011,9 -
30.03.2020 01:00:00 - - - - - - -
30.03.2020 00:00:00 11,0 7,0 4 2 NE - 10
29.03.2020 23:00:00 11,0 7,6 8 4 NE 1012,7 10
29.03.2020 22:00:00 11,0 7,0 2 1 SE - 10
29.03.2020 21:00:00 12,0 7,0 5 3 NNE - 10
29.03.2020 20:00:00 12,6 8,0 9 5 SW 1013,0 10
29.03.2020 19:00:00 14,0 7,0 8 4 SW - 10
29.03.2020 18:00:00 15,0 8,0 15 8 SSW - 10
29.03.2020 17:00:00 15,0 8,3 13 7 SSW 1012,7 10
29.03.2020 16:00:00 17,0 8,0 15 8 NW - 10
29.03.2020 15:00:00 17,0 8,0 22 12 NNW - 10
29.03.2020 14:00:00 17,6 7,5 24 13 N 1012,2 10
29.03.2020 13:00:00 17,0 8,0 22 12 N - 10
29.03.2020 12:00:00 16,0 7,0 21 11 NNW - 10
29.03.2020 11:00:00 15,8 9,5 18 10 NNW 1014,0 10
29.03.2020 10:00:00 15,0 9,0 15 8 N - 10
29.03.2020 09:00:00 14,0 9,0 9 5 NNE - 10
29.03.2020 08:00:00 9,9 7,3 9 5 NE 1014,2 10
29.03.2020 07:00:00 8,0 6,0 11 6 NE - 10
29.03.2020 06:00:00 8,0 6,0 8 4 NE - 10
29.03.2020 05:00:00 9,2 6,8 9 5 NE 1014,3 -
29.03.2020 04:00:00 - - - - - - -
29.03.2020 03:00:00 - - - - - - -
29.03.2020 02:00:00 10,4 6,4 11 6 NE 1014,9 -
29.03.2020 01:00:00 - - - - - - -

tt = temperature
td = dewpoint
ff = wind speed
dd = wind direction
ppp = reduced air pressure
vv = visibility

Next stations